map of BRC home
BRC - Airport
Location
City:  San Carlos de Bariloche, Río Negro, Argentina
Near (Alt.):Bariloche
Name:San Carlos de Bariloche Airport
ICAO:SAZS
IATA:BRC

Details
Type:Airport (Aerodrome, Airfield)
Use:Public/Civil
Latitude:41°09'04"S (-41.151171)
Longitude:71°09'27"W (-71.157541)
Datum:WGS 1984
Elevation:2776 ft (846 m)
Variation:6.43°E (WMM2015v2 magnetic declination)
-0.13° annual change
Runways:1
Longest:7703 × 157 ft (2348 × 48 m), paved

Time
Time Zone:UTC-3
Local Time:

Weather
METAR:SAZS 041400Z 30003KT 9999 FEW050 23/07 Q1019
TAF:SAZS 041100Z 0412/0512 14010KT CAVOK TX29/0418Z TN11/0510Z
BECMG 0414/0417 04010KT
BECMG 0422/0501 VRB03KT

Related Locations
Nearby:
Farthest:RLK: 12381 mi / 19925 km
Bayannur [Bayannur Tianjitai Airport], 15, CN

Find:

   beyond  
but within

Other Information
Maps:
NOTAMs:
Links:
Sources:

  
  • flag of Argentina
  

Sectional Chart

Flight Planning
at skyvector.com

Satellite Image

Google Maps Satellite view

 

Copyright © 2004-2019 Karl L. Swartz. All rights reserved.
The Great Circle Mapper name and logo are trademarks of the Great Circle Mapper.
All other trademarks mentioned herein belong to their respective owners.
Please see credits for attibutions and further copyright information.

  Follow gcmap on Facebook Follow gcmap on Twitter GCmap on LinkedIn

hCard Microformat

Geo Microformat